[[{"header":{"parameterUnit":"m.s-1","parameterCategory":1,"la1":30.2991,"la2":30.254,"lo1":-89.0895,"lo2":-89.0444,"dy":0.0017,"dx":0.0017,"nx":28,"ny":28,"refTime":"2024-10-07T21:00:00:Z","depth":0,"parameterNumber":2,"parameterNumberName":"U-component_of_WINDS"},"data":[0,0,0,0,0,0,0,0,0,0,0,0,0,0,0,0,0,0,0,0,0,0,0,0,0,0,0,0,0,0,0,0,0,0,0,0,0,0,0,0,0,0,0,0,0,0,0,0,0,0,0,0,0,0,0,0,0,0,-2.1518,-2.1519,0,-2.1533,-2.1533,-2.1533,-2.1534,-2.1534,-2.1534,-2.1534,-2.1549,-2.1549,-2.155,0,0,0,0,0,0,0,0,0,0,0,0,0,-2.1492,-2.1493,-2.1518,-2.1519,-2.1519,-2.1533,-2.1533,-2.1533,-2.1534,-2.1534,-2.1534,-2.1534,-2.1549,-2.1549,-2.155,0,0,0,0,0,0,0,0,0,0,0,0,0,-2.1505,-2.1493,-2.1518,-2.1521,-2.1522,-2.1533,-2.1533,-2.1533,-2.1535,-2.1534,-2.1534,-2.1534,-2.1548,-2.1549,-2.155,-2.1559,0,0,-2.1552,-2.1553,0,0,0,0,0,0,0,0,-2.1504,-2.1506,-2.1521,-2.1521,-2.1521,-2.1532,-2.1529,-2.1542,-2.1535,-2.153,-2.1534,-2.1534,-2.1543,-2.1545,-2.1548,-2.156,-2.1561,-2.1553,-2.1553,-2.1553,-2.1554,0,0,0,0,0,0,0,-2.1503,-2.1505,-2.1524,-2.1521,-2.1521,-2.1522,-2.1523,-2.1531,-2.1538,-2.153,-2.153,-2.1532,-2.1544,-2.1547,-2.1548,-2.1561,-2.1553,-2.1553,-2.1554,-2.1554,-2.1582,-2.1582,0,0,0,0,0,0,-2.1502,-2.1504,-2.1524,-2.1524,-2.1512,-2.1522,-2.1524,-2.1529,-2.1537,-2.1539,-2.1532,-2.1532,-2.1546,-2.1547,-2.1549,-2.156,-2.1553,-2.1554,-2.1555,-2.1581,-2.1582,-2.1582,0,0,0,0,0,0,-2.1501,-2.1503,-2.1523,-2.1514,-2.1517,-2.1523,-2.1528,-2.1529,-2.1532,-2.1539,-2.154,-2.1534,-2.1546,-2.1547,-2.1557,-2.156,-2.1554,-2.1555,-2.1581,-2.1581,-2.1582,-2.1583,0,0,0,0,0,0,-2.15,-2.1503,-2.1507,-2.1514,-2.1517,-2.1531,-2.1528,-2.1529,-2.1534,-2.1534,-2.1541,-2.1543,-2.1546,-2.1555,-2.1557,-2.1561,-2.1556,-2.1581,-2.1581,-2.1582,-2.1582,-2.1583,-2.1583,0,0,0,0,0,-2.1499,-2.1507,-2.1507,-2.1509,-2.1522,-2.1531,-2.1533,-2.1536,-2.1534,-2.1538,-2.1542,-2.1542,-2.156,-2.1556,-2.1559,-2.1563,-2.158,-2.1581,-2.1582,-2.1582,-2.1583,-2.1583,0,0,0,0,0,0,-2.1499,-2.1508,-2.1508,-2.1518,-2.1524,-2.1531,-2.1536,-2.1537,-2.1543,-2.1543,-2.1547,-2.1548,-2.1557,-2.1561,-2.1557,-2.1572,-2.157,-2.1571,-2.1569,-2.157,-2.1571,-2.157,-2.1557,0,0,0,0,0,-2.15,-2.1507,-2.1514,-2.1522,-2.1525,-2.153,-2.1534,-2.1536,-2.1542,-2.1544,-2.1549,-2.1555,-2.1562,-2.1566,-2.1573,-2.1583,-2.1585,-2.1587,-2.1588,-2.1588,-2.1589,-2.1594,-2.1595,-2.1584,-2.1584,-2.1584,0,0,-2.1503,-2.1508,-2.1512,-2.1522,-2.1527,-2.1533,-2.1532,-2.1539,-2.1544,-2.1546,-2.1554,-2.1558,-2.1565,-2.1574,-2.1579,-2.1578,-2.1592,-2.1589,-2.1589,-2.159,-2.1595,-2.1596,-2.1597,-2.1584,-2.1584,-2.1584,0,0,-2.151,-2.1515,-2.1522,-2.1527,-2.1534,-2.1537,-2.1539,-2.1546,-2.1549,-2.1558,-2.1559,-2.1565,-2.1577,-2.1581,-2.1585,-2.1595,-2.1595,-2.1597,-2.16,-2.1605,-2.1606,-2.1607,-2.161,-2.1611,-2.1598,-2.1598,-2.1598,0,-2.1512,-2.1522,-2.1526,-2.1533,-2.1537,-2.1539,-2.1546,-2.155,-2.1559,-2.1562,-2.1561,-2.1575,-2.158,-2.159,-2.1593,-2.1596,-2.1598,-2.1596,-2.1605,-2.1606,-2.1607,-2.161,-2.1611,-2.1598,-2.1598,-2.1598,-2.1598,0,-2.1524,-2.1531,-2.1536,-2.1544,-2.1549,-2.1556,-2.156,-2.1565,-2.1567,-2.157,-2.1579,-2.1585,-2.1592,-2.1595,-2.1597,-2.1606,-2.1605,-2.1605,-2.1602,-2.1608,-2.1611,-2.1612,-2.1598,-2.1598,-2.1598,-2.1598,0,0,-2.1531,-2.1541,-2.1543,-2.1547,-2.1555,-2.156,-2.1567,-2.1575,-2.1578,-2.1585,-2.159,-2.16,-2.16,-2.1604,-2.1607,-2.1611,-2.1618,-2.161,-2.161,-2.1611,-2.1628,-2.1628,-2.1629,-2.1618,-2.1619,-2.1619,-2.1627,0,-2.1539,-2.1552,-2.1555,-2.1566,-2.1572,-2.1574,-2.158,-2.1585,-2.1589,-2.1595,-2.1599,-2.1605,-2.1605,-2.1607,-2.1612,-2.1616,-2.1621,-2.1616,-2.1624,-2.1624,-2.1621,-2.163,-2.163,-2.1638,-2.1628,-2.1628,-2.1628,0,-2.155,-2.1556,-2.1567,-2.1574,-2.1577,-2.1583,-2.159,-2.1595,-2.1602,-2.1604,-2.1609,-2.1611,-2.1618,-2.1616,-2.1626,-2.1622,-2.1626,-2.1628,-2.1629,-2.1629,-2.1626,-2.1631,-2.164,-2.1641,-2.163,-2.163,-2.163,0,-2.1554,-2.1565,-2.1573,-2.1576,-2.1585,-2.1588,-2.1592,-2.1598,-2.1602,-2.1609,-2.1611,-2.1618,-2.1622,-2.1628,-2.1632,-2.163,-2.1641,-2.1639,-2.1643,-2.1643,-2.1645,-2.1645,-2.1655,-2.1648,-2.1648,-2.1648,-2.1648,0,-2.1562,-2.1568,-2.1575,-2.158,-2.1587,-2.1591,-2.1598,-2.1602,-2.1607,-2.1613,-2.1615,-2.1621,-2.1625,-2.1631,-2.1635,-2.1642,-2.1644,-2.1646,-2.1647,-2.1646,-2.1645,-2.1648,-2.1647,-2.1649,-2.1649,-2.1649,-2.1648,0,-2.1567,-2.1571,-2.158,-2.1588,-2.159,-2.1595,-2.1601,-2.1606,-2.1609,-2.1616,-2.1618,-2.1624,-2.1631,-2.1636,-2.1645,-2.1647,-2.1655,-2.1656,-2.1653,-2.1653,-2.1657,-2.1656,-2.1668,-2.167,-2.1663,-2.1663,-2.1663,0,-2.1572,-2.1577,-2.1585,-2.1589,-2.1592,-2.1599,-2.1603,-2.1607,-2.1611,-2.1619,-2.1623,-2.163,-2.1636,-2.1647,-2.1652,-2.1659,-2.166,-2.1664,-2.1661,-2.166,-2.166,-2.1659,-2.1659,-2.1664,-2.1664,-2.1664,-2.1664,0,-2.1579,-2.1581,-2.1588,-2.1594,-2.1599,-2.1605,-2.1611,-2.1614,-2.1619,-2.1624,-2.1631,-2.1635,-2.1645,-2.1652,-2.1659,-2.1663,-2.1664,-2.1665,-2.1666,-2.1665,-2.1663,-2.1664,-2.1654,-2.1665,-2.1665,-2.1665,-2.1664,-2.1664,-2.1584,-2.1589,-2.1595,-2.1602,-2.1606,-2.1612,-2.1616,-2.1621,-2.1627,-2.1634,-2.1636,-2.1644,-2.165,-2.166,-2.1664,-2.167,-2.167,-2.1671,-2.1672,-2.1672,-2.1672,-2.1662,-2.1672,-2.1672,-2.1672,-2.1672,-2.1672,0,-2.1592,-2.1596,-2.1602,-2.161,-2.1615,-2.1616,-2.1622,-2.1626,-2.1633,-2.1639,-2.1644,-2.1652,-2.1659,-2.1665,-2.1672,-2.1676,-2.1677,-2.1677,-2.1677,-2.1678,-2.1672,-2.167,-2.1677,-2.1677,-2.1677,-2.1677,-2.1677,-2.1677,-2.1596,-2.1604,-2.1607,-2.1617,-2.1621,-2.1628,-2.1631,-2.1636,-2.1641,-2.1649,-2.1655,-2.1659,-2.1664,-2.1672,-2.1678,-2.168,-2.1682,-2.1683,-2.1684,-2.1679,-2.1678,-2.1678,-2.1676,-2.1683,-2.1683,-2.169,-2.169,-2.169]},{"header":{"parameterUnit":"m.s-1","parameterCategory":1,"la1":30.2991,"la2":30.254,"lo1":-89.0895,"lo2":-89.0444,"dy":0.0017,"dx":0.0017,"nx":28,"ny":28,"refTime":"2024-10-07T21:00:00:Z","depth":0,"parameterNumber":3,"parameterNumberName":"V-component_of_WINDS"},"data":[0,0,0,0,0,0,0,0,0,0,0,0,0,0,0,0,0,0,0,0,0,0,0,0,0,0,0,0,0,0,0,0,0,0,0,0,0,0,0,0,0,0,0,0,0,0,0,0,0,0,0,0,0,0,0,0,0,0,-4.4082,-4.4083,0,-4.4121,-4.4121,-4.4122,-4.4103,-4.4102,-4.4101,-4.41,-4.4135,-4.4137,-4.4138,0,0,0,0,0,0,0,0,0,0,0,0,0,-4.399,-4.3992,-4.4082,-4.4083,-4.4083,-4.4121,-4.4121,-4.4122,-4.4103,-4.4101,-4.41,-4.4099,-4.4134,-4.4136,-4.4139,0,0,0,0,0,0,0,0,0,0,0,0,0,-4.4029,-4.3993,-4.4082,-4.4078,-4.4078,-4.4121,-4.4121,-4.4122,-4.4103,-4.4101,-4.41,-4.4099,-4.4134,-4.4136,-4.4139,-4.4186,0,0,-4.4147,-4.4149,0,0,0,0,0,0,0,0,-4.4027,-4.4033,-4.4078,-4.4079,-4.4079,-4.4105,-4.4102,-4.4143,-4.4103,-4.4094,-4.41,-4.4098,-4.4126,-4.4129,-4.414,-4.4187,-4.4189,-4.4148,-4.4149,-4.4151,-4.4151,0,0,0,0,0,0,0,-4.4025,-4.4031,-4.4097,-4.4079,-4.4079,-4.4074,-4.4078,-4.4109,-4.4117,-4.4094,-4.4093,-4.4098,-4.4126,-4.4137,-4.414,-4.4189,-4.4148,-4.415,-4.4152,-4.4153,-4.4281,-4.4282,0,0,0,0,0,0,-4.4022,-4.4029,-4.4096,-4.4098,-4.4049,-4.4077,-4.4081,-4.4098,-4.4117,-4.4119,-4.4099,-4.4097,-4.4133,-4.4137,-4.4141,-4.42,-4.4151,-4.4153,-4.4155,-4.4279,-4.4281,-4.4283,0,0,0,0,0,0,-4.4021,-4.4029,-4.4095,-4.4064,-4.4071,-4.408,-4.4099,-4.41,-4.4111,-4.4121,-4.4122,-4.4109,-4.4132,-4.4138,-4.4176,-4.4201,-4.4154,-4.4157,-4.4277,-4.428,-4.4282,-4.4316,0,0,0,0,0,0,-4.4018,-4.4028,-4.4046,-4.4064,-4.4073,-4.4129,-4.4101,-4.4102,-4.4116,-4.4114,-4.4131,-4.4132,-4.4131,-4.4172,-4.4179,-4.4204,-4.4159,-4.4275,-4.4278,-4.4281,-4.4313,-4.432,-4.4325,0,0,0,0,0,-4.4015,-4.4053,-4.4047,-4.4056,-4.4096,-4.4131,-4.4136,-4.4135,-4.4118,-4.4137,-4.4144,-4.4131,-4.4197,-4.4176,-4.4183,-4.421,-4.4273,-4.4277,-4.4281,-4.431,-4.4318,-4.4325,0,0,0,0,0,0,-4.4035,-4.4055,-4.4049,-4.4094,-4.4111,-4.4127,-4.415,-4.4143,-4.4164,-4.4161,-4.4158,-4.4162,-4.4203,-4.4209,-4.4186,-4.4258,-4.4232,-4.4238,-4.4252,-4.426,-4.4266,-4.4264,-4.4161,0,0,0,0,0,-4.4046,-4.4073,-4.4088,-4.4126,-4.4135,-4.4142,-4.4156,-4.4155,-4.4172,-4.4178,-4.4187,-4.4203,-4.4228,-4.4244,-4.4266,-4.4313,-4.4318,-4.4335,-4.4341,-4.4347,-4.4352,-4.438,-4.4389,-4.4296,-4.4296,-4.4295,0,0,-4.4066,-4.408,-4.4097,-4.4131,-4.4144,-4.4172,-4.4147,-4.4177,-4.4198,-4.4182,-4.422,-4.4228,-4.4245,-4.4289,-4.4309,-4.4296,-4.4379,-4.4351,-4.4356,-4.4358,-4.4385,-4.4394,-4.4402,-4.4298,-4.4298,-4.4297,0,0,-4.4118,-4.4131,-4.4166,-4.4181,-4.4202,-4.4206,-4.4214,-4.4232,-4.4238,-4.4276,-4.4265,-4.4289,-4.4331,-4.4345,-4.4357,-4.4418,-4.4409,-4.4425,-4.4458,-4.4486,-4.4493,-4.45,-4.4524,-4.4532,-4.443,-4.443,-4.443,0,-4.4141,-4.4184,-4.4184,-4.4217,-4.4233,-4.4221,-4.4257,-4.427,-4.4297,-4.4308,-4.4294,-4.4348,-4.4358,-4.4407,-4.4422,-4.4432,-4.4442,-4.4424,-4.4492,-4.4499,-4.4505,-4.4528,-4.4537,-4.4432,-4.4432,-4.4432,-4.4432,0,-4.4212,-4.4243,-4.4268,-4.4297,-4.4316,-4.4349,-4.4354,-4.4373,-4.437,-4.4376,-4.4416,-4.4429,-4.4456,-4.4467,-4.4463,-4.4515,-4.4507,-4.4493,-4.4468,-4.4516,-4.4538,-4.4546,-4.4435,-4.4435,-4.4434,-4.4433,0,0,-4.4278,-4.4309,-4.4319,-4.4333,-4.4357,-4.438,-4.4413,-4.4441,-4.4458,-4.4477,-4.4506,-4.4542,-4.453,-4.4545,-4.4542,-4.4566,-4.4617,-4.4549,-4.455,-4.4563,-4.4678,-4.4691,-4.4701,-4.461,-4.4612,-4.4613,-4.4678,0,-4.4334,-4.4396,-4.4398,-4.4453,-4.4482,-4.4473,-4.4503,-4.452,-4.4527,-4.4552,-4.4558,-4.4586,-4.4566,-4.4575,-4.4598,-4.4606,-4.464,-4.4601,-4.4638,-4.4639,-4.4636,-4.4712,-4.4724,-4.4785,-4.4686,-4.4687,-4.4688,0,-4.4408,-4.4433,-4.4492,-4.4515,-4.4527,-4.4553,-4.4581,-4.4605,-4.4625,-4.4628,-4.4646,-4.4641,-4.4675,-4.4648,-4.4696,-4.467,-4.4685,-4.4691,-4.4693,-4.4698,-4.4668,-4.4721,-4.4804,-4.4814,-4.4701,-4.47,-4.4699,0,-4.4454,-4.4501,-4.4544,-4.4556,-4.4582,-4.4602,-4.4613,-4.4632,-4.465,-4.4673,-4.4685,-4.4711,-4.4726,-4.4746,-4.4748,-4.4728,-4.4798,-4.477,-4.4802,-4.4802,-4.4818,-4.4818,-4.4907,-4.4825,-4.4824,-4.4824,-4.4824,0,-4.4518,-4.4555,-4.4566,-4.4592,-4.4634,-4.4636,-4.4677,-4.4686,-4.4704,-4.4732,-4.4724,-4.475,-4.4751,-4.4777,-4.4779,-4.482,-4.4826,-4.483,-4.4831,-4.4832,-4.4832,-4.4843,-4.484,-4.4827,-4.4826,-4.4826,-4.4825,0,-4.4576,-4.4584,-4.4631,-4.4653,-4.466,-4.469,-4.4709,-4.4734,-4.474,-4.4776,-4.4784,-4.4795,-4.4826,-4.483,-4.4866,-4.4867,-4.4918,-4.4912,-4.4912,-4.4912,-4.4945,-4.4943,-4.5046,-4.5061,-4.4967,-4.4968,-4.4968,0,-4.4617,-4.4646,-4.4673,-4.4693,-4.4706,-4.4737,-4.4756,-4.4759,-4.4779,-4.4805,-4.4828,-4.4859,-4.4884,-4.4935,-4.4945,-4.4973,-4.4969,-4.5004,-4.4973,-4.4975,-4.4973,-4.4973,-4.4976,-4.501,-4.5011,-4.5012,-4.5013,0,-4.4691,-4.4694,-4.4723,-4.4754,-4.4778,-4.4802,-4.4824,-4.484,-4.4846,-4.4869,-4.4903,-4.4923,-4.4961,-4.4992,-4.5021,-4.5031,-4.5024,-4.5022,-4.5032,-4.5035,-4.5035,-4.5038,-4.4931,-4.502,-4.5019,-4.5019,-4.5018,-4.5018,-4.4743,-4.477,-4.4795,-4.4827,-4.4845,-4.4867,-4.4894,-4.4905,-4.4933,-4.4967,-4.4966,-4.5003,-4.5024,-4.5062,-4.5075,-4.5104,-4.5093,-4.5105,-4.5109,-4.5113,-4.5118,-4.5029,-4.5108,-4.5108,-4.5108,-4.5108,-4.5108,0,-4.4819,-4.4835,-4.4865,-4.4899,-4.4925,-4.4917,-4.4942,-4.4965,-4.4998,-4.5019,-4.5045,-4.5085,-4.5116,-4.513,-4.516,-4.5181,-4.5178,-4.5189,-4.5189,-4.5192,-4.5125,-4.5115,-4.5191,-4.5191,-4.5191,-4.5191,-4.5191,-4.5191,-4.4861,-4.4907,-4.4914,-4.4969,-4.4984,-4.5023,-4.5038,-4.5059,-4.5076,-4.5122,-4.5149,-4.5158,-4.5176,-4.5208,-4.5237,-4.524,-4.5252,-4.5266,-4.5267,-4.5204,-4.5196,-4.5188,-4.5179,-4.5268,-4.5268,-4.5332,-4.5333,-4.5333]}]]